Home   Weather   Sousse   Past weeks
Flag for Tunisia

Past Weather in Sousse, Tunisia — Yesterday and Last 2 Weeks

Now
79 °F

Passing clouds.


Feels Like: 81 °F
Forecast: 85 / 68 °F
Wind: 12 mph from East

Location: Habib Bourguiba

Current Time: Oct 18, 2019 at 3:45:31 pm

Latest Report: Oct 18, 2019 at 3:00 pm


Visibility: N/A

Pressure: 30.01 "Hg

Humidity: 74%

Dew Point: 70 °F

Location of SousseLocation

Past Weather in Sousse — Graph

°F

Sousse Temperature Yesterday

Maximum temperature yesterday: 81 °F (at 12:00 pm)
Minimum temperature yesterday: 66 °F (at 5:30 am)
Average temperature yesterday: 73 °F

High & Low Weather Summary for the Past Weeks

 TemperatureHumidityPressure
High86 °F (Oct 5, 1:30 pm)100% (Oct 5, 6:30 am)30.21 "Hg (Oct 5, 6:30 am)
Low59 °F (Oct 5, 6:00 am)24% (Oct 5, 2:00 pm)29.68 "Hg (Oct 7, 6:00 pm)
Average74 °F79%30.03 "Hg
* Reported Oct 3 2:30 pm — Oct 18 2:30 pm, Sousse. Weather by CustomWeather, © 2019

Note: Actual official high and low records may vary slightly from our data, if they occured in-between our weather recording intervals... More about our weather records

Advertising

Sousse Weather History for the Previous 24 Hours

Scroll right to see more
 ConditionsComfort  
Time TempWeatherWind HumidityBarometerVisibility
2:30 pm
Fri, Oct 18
81 °FPassing clouds.9 mph74%30.01 "HgN/A
2:00 pm79 °FSunny.8 mph74%30.04 "Hg10 mi
1:30 pm79 °FSunny.8 mph74%30.04 "Hg10 mi
1:00 pm79 °FSunny.8 mph74%30.04 "Hg10 mi
12:30 pm79 °FPassing clouds.5 mph70%30.04 "HgN/A
12:00 pm77 °FPassing clouds.5 mph79%30.07 "HgN/A
11:30 am77 °FSunny.2 mph83%30.07 "Hg10 mi
11:00 am77 °FSunny.2 mph83%30.07 "Hg10 mi
10:00 am77 °FClear.5 mph79%30.07 "Hg4 mi
9:30 am75 °FClear.3 mph89%30.07 "Hg4 mi
9:00 am73 °FClear.No wind94%30.07 "Hg4 mi
8:30 am70 °FClear.No wind100%30.07 "Hg4 mi
8:00 am68 °FClear.No wind100%30.07 "Hg3 mi
7:30 am68 °FPassing clouds.3 mph100%30.04 "Hg3 mi
7:00 am66 °FClear.5 mph100%30.04 "Hg4 mi
6:30 am66 °FClear.3 mph100%30.04 "Hg4 mi
6:00 am66 °FClear.5 mph100%30.04 "Hg4 mi
5:30 am68 °FClear.5 mph100%30.04 "Hg4 mi
5:00 am68 °FClear.3 mph100%30.04 "Hg4 mi
4:30 am68 °FClear.No wind100%30.04 "Hg4 mi
4:00 am68 °FClear.2 mph100%30.04 "Hg5 mi
3:30 am68 °FClear.No wind100%30.04 "Hg5 mi
3:00 am68 °FMild.No wind100%30.04 "HgN/A
2:30 am68 °FMild.No wind100%30.07 "HgN/A
2:00 am70 °FClear.2 mph100%30.07 "Hg5 mi
1:30 am70 °FClear.3 mph100%30.07 "Hg5 mi
1:00 am70 °FClear.3 mph100%30.07 "Hg5 mi
12:30 am70 °FClear.2 mph100%30.07 "Hg5 mi
12:00 am70 °FClear.No wind100%30.07 "Hg5 mi
11:30 pm
Thu, Oct 17
70 °FClear.No wind100%30.07 "Hg5 mi
11:00 pm72 °FClear.5 mph100%30.07 "Hg5 mi
10:30 pm72 °FClear.3 mph100%30.07 "Hg5 mi
10:00 pm72 °FClear.5 mph100%30.07 "Hg5 mi
9:30 pm73 °FClear.6 mph94%30.07 "Hg5 mi
9:00 pm73 °FClear.8 mph94%30.07 "Hg5 mi
8:30 pm73 °FClear.7 mph94%30.07 "Hg5 mi
8:00 pm75 °FClear.5 mph83%30.07 "Hg5 mi
7:30 pm75 °FClear.7 mph83%30.07 "Hg10 mi
7:00 pm75 °FPassing clouds.8 mph83%30.07 "HgN/A
6:30 pm77 °FPassing clouds.8 mph79%30.07 "HgN/A
6:00 pm77 °FPassing clouds.12 mph74%30.07 "HgN/A
5:30 pm77 °FScattered clouds.12 mph79%30.07 "HgN/A
3:30 pm79 °FScattered clouds.17 mph79%30.07 "HgN/A
3:00 pm79 °FScattered clouds.17 mph79%30.07 "HgN/A
Weather by CustomWeather, © 2019

See weather overview